Location: Dealu Mare
(46.0500°N, 22.8167°E)
Time: 22:31:55
(UTC+00:00)

GEOS 3 Rocket - Pass Details

Date: 15 January 2026
Orbit: 768 x 845 km, 115.0° (Epoch: 11 February)

Event Time Altitude Azimuth Distance (km) Brightness Sun altitude
Rises 04:27:45 0° 150° (SSE) 3,296 7.5 -16.8°
Reaches altitude 10° 04:30:02 10° 154° (SSE) 2,381 6.6 -16.4°
Maximum altitude 04:35:09 62° 235° (SW) 915 3.7 -15.5°
Enters shadow 04:39:01 19° 312° (NW) 1,902 5.0 -14.9°
